SCP
0 0 0 -0 0 0 0 0 0 0 0 0 0 0 0 0 0 0 0 0 0 0 0 0 0 0 0 0 0 0 0 0 0 0 0 0 0 0 0 0 0 0 0
0 0 0 0 0 0 0 0 0 0 0 0 0 0 0 0 0 0 0 0 0 0 0 0 0 0 0 0 0 0 0 0 0 0 0 0 0 0 0 0 0 0 0
0 0 0 0 0 0 0 0 0 0 0 0 0 0 0 0 0 0 0 0 0 0 0 0 0 0 0 0 0 0 0 0 0 0 0 0 0 0 0 0 0 0 0
0 0 0 0 0 0 0 0 0 0 0 0 0 0 0 0 0 0 0 0 0 0 0 0 0 0 0 0 0 0 0 0 0 0 0 0 0 0 0 0 0 0 0
0 0 0 0 0 0 0 0 0 0 0 0 0 0 0 0 0 0 0 0 0 0 0 0 0 0 0 0 0 0 0 0 0 0 0 0 0 0 0 0 0 0 0
0 0 0 0 0 0 0 0 0 0 0 0 0 0 0 0 0 0 0 0 0 0 0 0 0 0 0 0 0 0 0 0 0 0 0 0 0 0 0 0 0 0 0
0 0 0 0 0 0 0 0 0 0 0 0 0 0 0 0 0 0 0 0 0 0 0 0 0 0 0 0 0 0 0 0 0 0 0 0 0 0 0 0 0 0 0
0 0 0 0 0 0 0 0 0 0 0 0 0 0 0 0 0 0 0 0 0 0 0 0 0 0 0 0 0 0 0 0 0 0 0 0 0 0 0 0 0 0 0
0 0 0 0 0 0 0 0 0 0 0 0 0 0 0 0 0 0 0 0 0 0 0 0 0 0 0 0 0 0 0 0 0 0 0 0 0 0 0 0 0 0 0
0 0 0 0 0 0 0 0 0 0 0 0 0 0 0 0 0 0 0 0 0 0 0 0 0 0 0 0 0 0 0 0 0 0 0 0 0 0 0 0 0 0 0
0 0 0 0 0 0 0 0 0 0 0 0 0 0 0 0 0 0 0 0 0 0 0 0 0 0 0 0 0 0 0 0 0 0 0 0 0 0 0 0 0 0 0
0 0 0 0 0 0 0 0 0 0 0 0 0 0 0 0 0 0 0 0 0 0 0 0 0 0 0 0 0 0 0 0 0 0 0 0 0 0 0 0 0 0 0
0 0 0 0 0 0 0 0 0 0 0 0 0 0 0 0 0 0 0 0 0 0 0 0 0 0 0 0 0 0 0 0 0 0 0 0 0 0 0 0 0 0 0
0 0 0 0 0 0 0 0 0 0 0 0 0 0 0 0 0 0 0 0 0 0 0 0 0 0 0 0 0 0 0 0 0 0 0 0 0 0 0 0 0 0 0
0 0 0 0 0 0 0 0 0 0 0 0 0 0 0 0 0 0 0 0 0 0 0 0 0 0 0 0 0 0 0 0 0 0 0 0 0 0 0 0 0 0 0
0 0 0 0 0 0 0 0 0 0 0 0 0 0 0 0 0 0 0 0 0 0 0 0 0 0 0 0 0 0 0 0 0 0 0 0 0 0 0 0 0 0 0
0 0 0 0 0 0 0 0 0 0 0 0 0 0 0 0 0 0 0 0 0 0 0 0 0 0 0 0 0 0 0 0 0 0 0 0 0 0 0 0 0 0 0
0 0 0 0 0 0 0 0 0 0 0 0 0 0 0 0 0 0 0 0 0 0 0 0 0 0 0 0 0 0 0 0 0 0 0 0 0 0 0 0 0 0 0
0 0 0 0 0 0 0 0 0 0 0 0 0 0 0 0 0 0 0 0 0 0 0 0 0 0 0 0 0 0 0 0 0 0 0 0 0 0 0 0 0 0 0
0 0 0 0 0 0 0 0 0 0 0 0 0 0 0 0 0 0 0 0 0 0 0 0 0 0 0 0 0 0 0 0 0 0 0 0 0 0 0 0 0 0 0
0 0 0 0 0 0 0 0 0 0 0 0 0 0 0 0 0 0 0 0 0 0 0 0 0 0 0 0 0 0 0 0 0 0 0 0 0 0 0 0 0 0 0
0 0 0 0 0 0 0 0 0 0 0 0 0 0 0 0 0 0 0 0 0 0 0 0 0 0 0 0 0 0 0 0 0 0 0 0 0 0 0 0 0 0 0
0 0 0 0 0 0 0 0 0 0 0 0 0 0 0 0 0 0 0 0 0 0 0 0 0 0 0 0 0 0 0 0 0 0 0 0 0 0 0 0 0 0 0
0 0 0 0 0 0 0 0 0 0 0 0 0 0 0 0 0 0 0 0 0 0 0 0 0 0 0 0 0 0 0 0 0 0 0 0 0 0 0 0 0 0 0
0 0 0 0 0 0 0 0 0 0 0 0 0 0 0 0 0 0 0 0 0 0 0 0 0 0 0 0 0 0 0 0 0 0 0 0 0 0 0 0 0 0 0
0 0 0 0 0 0 0 0 0 0 0 0 0 0 0 0 0 0 0 0 0 0 0 0 0 0 0 0 0 0 0 0 0 0 0 0 0 0 0 0 0 0 0
Wind_Speed
1 1 1 1 1 1 1 1 1 1 1 1 1 2 3 3 3 3 2 7 8 9 9 9 9 9 9 9 9 9 10 9 9 9 9 9 9 8 8 8 8 7 7
2 2 1 1 0 0 1 1 1 1 1 1 1 1 2 2 3 3 3 4 8 9 10 10 10 10 10 10 10 10 10 10 10 10 9 9 9 9 9 9 9 8 8
2 2 1 0 0 0 1 1 1 1 1 0 0 1 1 2 3 3 3 3 4 8 10 10 10 11 11 11 12 11 11 11 10 10 10 10 9 9 9 9 10 9 9
3 2 1 1 1 0 1 1 1 1 1 1 0 1 1 2 3 4 4 4 3 4 7 11 11 12 12 13 13 13 13 12 12 12 12 11 11 11 11 11 10 10 10
3 3 2 1 1 1 1 1 1 1 0 0 1 1 2 2 3 4 5 5 5 5 5 7 11 12 13 14 14 14 14 14 14 13 13 13 13 12 12 12 11 11 11
3 3 2 2 2 1 1 1 1 1 1 1 1 1 2 3 3 4 5 5 5 7 7 7 6 7 13 13 14 14 15 15 15 15 15 15 15 14 13 13 13 13 13
3 3 2 2 2 2 2 2 1 1 1 1 0 2 2 2 3 4 4 4 6 7 7 7 6 5 6 11 13 14 15 16 15 16 16 16 16 15 14 15 14 14 14
3 4 3 2 2 2 2 2 2 1 1 1 1 0 2 3 2 3 3 4 5 5 6 8 7 7 7 5 8 13 15 16 16 16 16 16 16 15 16 16 16 15 15
4 4 4 3 3 3 3 3 3 3 2 1 2 2 1 2 3 2 2 3 3 4 5 6 8 8 8 7 7 10 14 14 15 16 16 15 14 14 16 16 17 16 16
3 4 4 4 3 3 3 3 3 3 3 2 2 2 2 2 1 3 2 2 3 4 5 5 6 7 7 6 7 10 12 12 13 15 15 14 14 13 14 15 16 16 16
2 3 3 3 3 3 3 3 3 3 3 3 2 2 2 2 2 2 4 3 2 3 4 5 5 5 6 6 6 8 11 11 12 13 13 13 13 13 14 15 16 16 16
2 2 3 3 3 3 3 3 3 4 3 3 3 2 2 2 3 3 4 4 3 3 3 3 3 4 4 5 7 9 10 10 10 11 12 12 13 13 13 14 15 15 15
2 3 3 3 3 4 4 3 3 3 3 4 4 3 3 3 2 2 3 3 3 3 2 2 2 2 3 3 4 7 8 8 9 9 9 10 10 10 10 10 12 12 12
3 3 3 3 3 3 3 3 2 3 2 3 4 3 2 3 2 3 3 2 2 2 2 2 1 2 2 2 3 4 4 5 6 6 7 7 8 8 7 7 7 8 8
2 3 3 3 3 3 3 2 2 2 2 2 2 2 2 2 2 2 2 2 2 3 3 1 1 2 2 2 2 1 2 2 3 4 4 5 5 5 5 5 5 6 6
1 1 1 2 2 2 2 2 2 2 2 2 1 1 2 2 2 2 2 2 3 3 3 1 1 2 3 3 3 2 2 2 1 2 3 3 3 4 4 4 5 5 5
1 1 1 1 1 1 2 2 2 1 1 1 1 1 2 1 1 1 1 1 2 2 3 2 1 2 2 3 4 3 2 2 2 3 1 0 1 2 2 2 3 3 3
1 1 1 1 1 1 1 2 1 1 1 0 0 0 1 1 1 1 1 1 1 1 1 1 2 2 2 3 3 3 3 3 2 4 5 5 4 2 1 0 1 1 2
1 1 2 2 1 1 2 2 2 1 1 1 1 1 1 1 1 1 1 1 1 1 0 0 1 2 2 3 3 3 4 3 3 5 6 6 6 6 5 5 3 2 0
2 2 2 2 3 3 3 3 3 3 3 3 3 3 2 2 1 1 1 1 2 2 2 2 2 2 2 3 3 3 3 3 3 4 5 5 6 6 6 6 5 4 3
3 3 4 4 4 4 3 4 4 4 4 4 4 4 4 5 6 3 2 2 3 3 3 3 2 2 3 3 3 2 2 2 2 4 3 4 4 4 4 6 6 5 4
4 5 5 5 5 4 6 7 5 4 4 4 4 3 4 5 7 8 8 8 6 4 3 2 2 2 2 2 3 2 2 2 2 3 2 3 3 3 3 4 7 8 6
5 5 5 6 6 6 9 9 9 6 6 5 4 4 4 6 6 5 8 9 9 9 6 2 3 2 2 3 2 3 2 2 2 3 2 2 3 2 3 5 7 7 7
5 5 5 5 6 7 8 9 10 8 7 6 6 6 5 5 6 6 6 7 8 7 7 5 4 3 4 3 2 2 1 1 1 3 3 2 3 3 3 3 7 7 7
6 6 5 6 6 6 8 9 8 6 6 7 7 7 6 6 8 8 7 7 7 6 8 10 10 9 10 10 7 4 3 3 3 3 3 2 3 2 2 2 4 7 7
6 6 7 6 6 6 8 8 7 5 6 6 6 7 10 9 10 9 6 6 6 5 5 7 8 9 8 9 10 5 3 2 2 2 4 3 3 3 2 2 3 4 4
Wind_Direction
118 101 76 65 55 58 55 49 62 61 54 73 133 150 162 163 161 167 181 189 190 192 192 191 192 192 193 191 191 191 191 191 189 187 189 187 187 187 189 191 187 189 189
148 141 128 95 51 76 73 57 53 55 54 79 120 159 170 171 173 179 193 204 203 201 203 203 203 204 204 202 201 202 203 201 197 196 198 198 198 200 201 202 200 200 200
159 151 150 188 254 87 84 73 55 55 46 81 115 173 189 189 193 195 199 210 217 216 214 213 215 215 214 212 211 210 211 210 206 204 204 206 207 207 209 212 210 209 207
169 160 172 212 218 128 109 105 92 56 38 55 217 242 223 211 214 208 206 212 218 225 227 225 224 223 223 223 220 218 215 215 215 213 212 213 214 214 214 216 216 215 213
181 172 193 208 182 153 149 159 135 154 189 242 250 242 231 222 223 219 217 218 220 224 229 236 234 230 230 232 229 226 223 221 220 221 221 221 221 220 219 220 219 220 218
184 175 195 204 174 156 174 176 162 165 210 232 270 274 257 240 228 227 228 224 223 228 231 237 239 240 238 238 236 234 232 229 225 225 226 227 227 225 223 223 224 224 223
181 179 197 190 181 188 200 192 172 188 215 154 66 330 313 270 244 238 234 231 232 232 231 232 233 235 243 242 240 239 238 236 231 229 229 229 229 228 225 226 227 228 228
188 195 193 197 194 193 203 196 185 183 212 163 148 58 332 329 303 248 235 231 237 236 239 238 233 232 236 237 237 239 241 241 238 235 234 232 231 229 227 227 228 229 230
193 201 194 195 200 198 207 206 194 191 206 206 182 166 176 264 305 306 259 243 240 235 241 244 238 236 235 235 240 240 241 241 242 241 239 235 232 229 229 230 231 232 232
200 200 198 194 201 205 212 214 199 196 187 211 215 215 204 190 231 307 309 275 256 247 245 246 243 237 235 232 232 233 237 238 239 241 241 238 234 231 230 231 233 234 233
218 206 195 194 204 211 216 215 200 197 196 202 202 198 209 213 214 232 284 303 298 261 252 248 244 241 238 234 233 235 233 234 236 239 241 241 240 238 235 236 239 239 237
233 218 203 202 209 215 219 217 213 206 207 211 213 203 194 200 206 212 245 273 289 290 276 261 250 246 243 240 242 241 235 234 236 238 242 244 244 242 240 240 241 242 241
232 233 217 208 213 219 217 208 211 217 211 214 221 221 217 226 209 206 228 259 274 288 298 292 263 266 262 249 250 246 243 240 238 239 241 246 248 245 243 241 240 241 243
230 232 217 217 223 223 219 203 212 218 219 227 230 219 221 235 220 215 219 230 272 284 283 282 322 322 308 281 269 251 257 246 236 234 237 241 243 243 242 241 240 240 240
233 235 227 217 222 221 218 196 198 207 209 226 234 227 231 246 233 233 229 219 231 270 285 310 326 340 336 339 336 301 271 262 247 241 236 235 236 239 241 239 241 242 237
229 236 223 216 215 206 201 188 189 200 197 226 227 229 246 258 250 238 229 228 224 231 262 294 297 328 349 357 13 352 320 324 290 249 238 232 230 226 223 223 222 225 227
197 223 228 212 213 198 190 182 190 194 204 243 268 250 267 272 273 271 238 225 223 215 243 288 324 345 3 357 353 357 0 1 19 26 15 294 216 213 210 215 221 219 218
184 185 164 161 197 176 159 169 181 176 184 212 306 341 304 300 285 295 282 259 244 224 224 275 333 353 355 354 352 358 4 12 16 36 41 46 47 42 42 145 209 212 216
143 123 122 124 101 114 122 127 121 103 91 80 57 46 353 24 8 10 36 8 7 55 105 139 343 348 348 360 1 6 12 7 23 35 41 46 45 46 45 45 44 35 314
124 108 106 113 103 95 90 91 95 89 77 58 44 47 45 47 20 18 46 47 65 65 68 73 37 12 3 346 8 5 5 11 22 21 24 34 36 40 38 40 42 36 23
105 96 87 78 77 81 78 90 96 94 86 70 55 51 57 65 63 59 63 63 74 76 74 69 49 32 15 2 358 346 353 349 29 22 13 24 29 36 32 28 26 27 25
85 81 79 78 70 69 72 81 92 85 78 74 61 47 51 53 60 61 65 67 73 83 80 71 56 35 354 338 338 349 356 4 7 359 1 15 24 32 26 31 28 29 25
84 80 76 77 75 68 71 76 80 83 77 67 56 47 50 48 56 64 64 62 59 57 61 80 64 15 346 331 340 5 13 28 20 347 347 10 8 17 24 23 22 24 23
84 79 74 78 80 71 75 81 82 80 74 63 56 55 58 48 52 65 71 65 59 51 50 57 58 33 20 360 347 342 333 5 23 20 15 17 1 357 3 14 20 21 19
80 76 73 74 77 68 70 80 84 84 76 63 54 52 57 56 50 58 70 68 57 46 51 56 55 45 39 36 32 37 31 38 23 8 9 8 351 334 341 358 14 22 22
86 84 73 66 71 69 65 77 85 89 82 73 61 55 57 61 55 56 65 68 62 39 39 40 37 32 32 34 36 37 31 42 25 6 4 359 357 354 341 340 350 358 4